[[{"header":{"parameterUnit":"m.s-1","parameterCategory":1,"la1":30.2991,"la2":30.254,"lo1":-89.0895,"lo2":-89.0444,"dy":0.0017,"dx":0.0017,"nx":28,"ny":28,"refTime":"2023-07-18T03:00:00:Z","depth":0,"parameterNumber":2,"parameterNumberName":"U-component_of_WINDS"},"data":[0,0,0,0,0,0,0,0,0,0,0,0,0,0,0,0,0,0,0,0,0,0,0,0,0,0,0,0,0,0,0,0,0,0,0,0,0,0,0,0,0,0,0,0,0,0,0,0,0,0,0,0,0,0,0,0,0,0,2.3282,2.3282,0,2.332,2.332,2.3321,2.3278,2.3276,2.3275,2.3273,2.3311,2.3313,2.3315,0,0,0,0,0,0,0,0,0,0,0,0,0,2.3171,2.3173,2.3282,2.3282,2.3283,2.332,2.332,2.3321,2.3278,2.3276,2.3274,2.3273,2.331,2.3313,2.3316,0,0,0,0,0,0,0,0,0,0,0,0,0,2.3215,2.3174,2.3281,2.3266,2.3265,2.332,2.332,2.3321,2.3279,2.3276,2.3274,2.3272,2.3309,2.3312,2.3316,2.3388,0,0,2.3328,2.3329,0,0,0,0,0,0,0,0,2.3212,2.3219,2.3268,2.3267,2.3266,2.3292,2.3295,2.3343,2.3279,2.3273,2.3273,2.327,2.3306,2.331,2.3322,2.339,2.3391,2.3328,2.333,2.3332,2.3333,0,0,0,0,0,0,0,2.3209,2.3217,2.3297,2.3268,2.3267,2.3257,2.326,2.3304,2.3303,2.3274,2.3271,2.3276,2.3305,2.3319,2.3323,2.3392,2.3328,2.3331,2.3333,2.3335,2.3521,2.3524,0,0,0,0,0,0,2.3208,2.3215,2.3295,2.3298,2.3233,2.3261,2.3265,2.3286,2.3302,2.3302,2.3278,2.3274,2.3314,2.3319,2.3324,2.341,2.3332,2.3335,2.3337,2.3518,2.3522,2.3525,0,0,0,0,0,0,2.3206,2.3216,2.3294,2.3256,2.3265,2.3265,2.3289,2.3288,2.3302,2.3306,2.3305,2.3292,2.3312,2.3319,2.3373,2.3411,2.3337,2.334,2.3515,2.3519,2.3523,2.3582,0,0,0,0,0,0,2.3203,2.3215,2.3243,2.3257,2.3267,2.3342,2.3292,2.329,2.3308,2.3303,2.3319,2.3319,2.3311,2.3367,2.3377,2.3414,2.3343,2.3512,2.3517,2.3522,2.3576,2.3587,2.3596,0,0,0,0,0,2.3199,2.3257,2.3244,2.3254,2.3301,2.3344,2.335,2.334,2.3312,2.3339,2.3342,2.3318,2.3405,2.3373,2.3383,2.3423,2.3509,2.3516,2.3521,2.3572,2.3585,2.3596,0,0,0,0,0,0,2.3246,2.3258,2.3244,2.3308,2.3326,2.3337,2.3371,2.3354,2.338,2.3374,2.336,2.3363,2.3421,2.3427,2.3391,2.3494,2.3453,2.3461,2.3487,2.35,2.351,2.3507,2.3346,0,0,0,0,0,2.3264,2.3299,2.3307,2.3363,2.3372,2.3371,2.3389,2.338,2.3397,2.3404,2.3411,2.3428,2.3459,2.348,2.3509,2.3577,2.358,2.361,2.362,2.3628,2.3635,2.3673,2.3686,2.3545,2.3544,2.3544,0,0,2.3301,2.3312,2.3334,2.3372,2.3385,2.3421,2.3377,2.3417,2.3443,2.341,2.3462,2.3468,2.3486,2.3548,2.3575,2.3555,2.3675,2.3636,2.3642,2.3645,2.368,2.3694,2.3706,2.3549,2.3548,2.3547,0,0,2.3387,2.3398,2.3446,2.3461,2.3481,2.3479,2.3491,2.3506,2.3509,2.3561,2.3537,2.3568,2.3622,2.3637,2.3651,2.3745,2.3725,2.3755,2.3807,2.3844,2.3855,2.3865,2.3899,2.3911,2.3762,2.3762,2.3762,0,2.343,2.3484,2.3473,2.3515,2.3533,2.3506,2.3555,2.3569,2.3597,2.361,2.3587,2.3655,2.3665,2.3731,2.3754,2.3766,2.3779,2.3752,2.3855,2.3864,2.3873,2.3905,2.3918,2.3766,2.3765,2.3765,2.3765,0,2.3536,2.3574,2.361,2.364,2.3662,2.3707,2.3703,2.3727,2.3716,2.3718,2.3772,2.3784,2.3815,2.383,2.3819,2.3894,2.3881,2.3857,2.3815,2.389,2.392,2.3933,2.3771,2.377,2.3769,2.3768,0,0,2.365,2.3675,2.3689,2.3702,2.3724,2.3752,2.3797,2.3829,2.3849,2.387,2.3907,2.3955,2.3933,2.3949,2.3941,2.3973,2.4048,2.3945,2.3945,2.3964,2.4132,2.415,2.4164,2.4035,2.4037,2.4039,2.413,0,2.3737,2.3814,2.3807,2.3881,2.3916,2.3892,2.3931,2.3948,2.3951,2.3982,2.3984,2.4019,2.3987,2.3997,2.4028,2.4032,2.4081,2.4025,2.4069,2.407,2.4064,2.418,2.4198,2.4284,2.4142,2.4144,2.4145,0,2.3847,2.3874,2.3951,2.3969,2.3983,2.4018,2.4048,2.4077,2.4097,2.4097,2.4117,2.4103,2.4148,2.4106,2.4168,2.413,2.4148,2.4153,2.4156,2.4159,2.4112,2.4186,2.4311,2.4323,2.4163,2.4162,2.4161,0,2.3923,2.3978,2.4032,2.4045,2.4066,2.4092,2.4102,2.4119,2.4139,2.4165,2.4178,2.4208,2.4225,2.4249,2.4244,2.4214,2.4307,2.4265,2.4308,2.4309,2.4328,2.4327,2.4458,2.434,2.434,2.434,2.434,0,2.402,2.4069,2.4067,2.41,2.4154,2.4146,2.4199,2.4206,2.4222,2.4256,2.4237,2.4269,2.4261,2.4293,2.429,2.4342,2.4349,2.435,2.4349,2.4352,2.4352,2.4363,2.4356,2.4343,2.4343,2.4342,2.4341,0,2.4114,2.4115,2.4172,2.4188,2.4194,2.4233,2.4247,2.4278,2.428,2.4324,2.4334,2.4337,2.4374,2.4372,2.4413,2.4411,2.4475,2.4467,2.4469,2.4467,2.4511,2.4507,2.4652,2.4671,2.4542,2.4544,2.4545,0,2.4175,2.4212,2.4234,2.4256,2.4268,2.4303,2.4324,2.4318,2.4341,2.4367,2.4395,2.4431,2.4459,2.4519,2.4525,2.4557,2.4549,2.4598,2.4553,2.4556,2.455,2.4547,2.4551,2.4606,2.4608,2.4609,2.461,0,2.4285,2.4284,2.4315,2.4348,2.4373,2.4398,2.4421,2.444,2.4436,2.4462,2.4501,2.4523,2.4566,2.4602,2.4632,2.4642,2.4626,2.4624,2.4636,2.4639,2.4639,2.464,2.4492,2.462,2.4619,2.4619,2.4618,2.4618,2.4364,2.4396,2.4417,2.4453,2.447,2.4492,2.4522,2.4529,2.4561,2.4597,2.4591,2.4634,2.4654,2.4694,2.4708,2.4741,2.4723,2.474,2.4744,2.4749,2.4754,2.4634,2.4747,2.4746,2.4746,2.4746,2.4745,0,2.4472,2.4485,2.4518,2.4552,2.458,2.4564,2.4588,2.4613,2.4651,2.4672,2.47,2.4745,2.478,2.479,2.4823,2.4848,2.4842,2.4857,2.4855,2.4858,2.4767,2.4754,2.4862,2.4862,2.4862,2.4862,2.4862,2.4862,2.4532,2.4586,2.4588,2.465,2.4662,2.4705,2.4721,2.4741,2.4758,2.4809,2.4838,2.4845,2.4861,2.4896,2.4928,2.4929,2.4943,2.4962,2.496,2.4876,2.4864,2.4853,2.484,2.4965,2.4965,2.5048,2.5049,2.5049]},{"header":{"parameterUnit":"m.s-1","parameterCategory":1,"la1":30.2991,"la2":30.254,"lo1":-89.0895,"lo2":-89.0444,"dy":0.0017,"dx":0.0017,"nx":28,"ny":28,"refTime":"2023-07-18T03:00:00:Z","depth":0,"parameterNumber":3,"parameterNumberName":"V-component_of_WINDS"},"data":[0,0,0,0,0,0,0,0,0,0,0,0,0,0,0,0,0,0,0,0,0,0,0,0,0,0,0,0,0,0,0,0,0,0,0,0,0,0,0,0,0,0,0,0,0,0,0,0,0,0,0,0,0,0,0,0,0,0,-2.1026,-2.1027,0,-2.1046,-2.1046,-2.1047,-2.1004,-2.1003,-2.1001,-2.1,-2.1018,-2.102,-2.1021,0,0,0,0,0,0,0,0,0,0,0,0,0,-2.095,-2.0951,-2.1026,-2.1027,-2.1027,-2.1046,-2.1046,-2.1047,-2.1004,-2.1003,-2.1001,-2.1,-2.1017,-2.1019,-2.1021,0,0,0,0,0,0,0,0,0,0,0,0,0,-2.0978,-2.0952,-2.1026,-2.1008,-2.1007,-2.1046,-2.1046,-2.1047,-2.1005,-2.1003,-2.1001,-2.0999,-2.1017,-2.1019,-2.1022,-2.1079,0,0,-2.103,-2.1031,0,0,0,0,0,0,0,0,-2.0976,-2.098,-2.1011,-2.101,-2.1008,-2.1021,-2.1026,-2.1057,-2.1005,-2.1005,-2.1,-2.0998,-2.102,-2.1022,-2.1031,-2.108,-2.108,-2.103,-2.1031,-2.1033,-2.1033,0,0,0,0,0,0,0,-2.0974,-2.0979,-2.1034,-2.1011,-2.101,-2.0998,-2.1,-2.1032,-2.1024,-2.1005,-2.1002,-2.1005,-2.1019,-2.1028,-2.1031,-2.1081,-2.103,-2.1032,-2.1034,-2.1035,-2.1177,-2.1179,0,0,0,0,0,0,-2.0975,-2.0978,-2.1033,-2.1035,-2.0987,-2.1001,-2.1003,-2.1019,-2.1024,-2.1022,-2.1007,-2.1003,-2.1025,-2.1028,-2.1031,-2.1098,-2.1033,-2.1035,-2.1037,-2.1175,-2.1177,-2.118,0,0,0,0,0,0,-2.0974,-2.098,-2.1033,-2.1006,-2.1011,-2.1005,-2.1022,-2.102,-2.1029,-2.1025,-2.1023,-2.1018,-2.1023,-2.1027,-2.1067,-2.1098,-2.1036,-2.1039,-2.1172,-2.1175,-2.1178,-2.1232,0,0,0,0,0,0,-2.0971,-2.098,-2.1002,-2.1006,-2.1013,-2.1069,-2.1024,-2.1022,-2.1034,-2.1029,-2.1034,-2.1033,-2.1022,-2.1064,-2.107,-2.11,-2.1041,-2.1169,-2.1173,-2.1177,-2.1227,-2.1236,-2.1244,0,0,0,0,0,-2.0969,-2.1016,-2.1004,-2.101,-2.1041,-2.1071,-2.1075,-2.1061,-2.1037,-2.1058,-2.1056,-2.1033,-2.1094,-2.1068,-2.1075,-2.1106,-2.1167,-2.1172,-2.1177,-2.1223,-2.1235,-2.1244,0,0,0,0,0,0,-2.1014,-2.1016,-2.1002,-2.1052,-2.1062,-2.1064,-2.1091,-2.1074,-2.109,-2.1085,-2.1067,-2.1068,-2.1111,-2.1113,-2.1084,-2.1161,-2.1126,-2.1133,-2.1159,-2.117,-2.1178,-2.1176,-2.1043,0,0,0,0,0,-2.103,-2.1056,-2.1056,-2.11,-2.1105,-2.1098,-2.111,-2.1099,-2.1108,-2.1112,-2.1112,-2.1121,-2.1142,-2.1156,-2.1175,-2.1227,-2.1228,-2.1252,-2.1261,-2.1268,-2.1274,-2.1301,-2.1312,-2.1196,-2.1196,-2.1196,0,0,-2.1063,-2.1067,-2.1084,-2.1109,-2.1115,-2.1141,-2.1101,-2.113,-2.1149,-2.1116,-2.1154,-2.1154,-2.1163,-2.1209,-2.123,-2.1212,-2.1306,-2.1274,-2.128,-2.1282,-2.1307,-2.1318,-2.1328,-2.1199,-2.1199,-2.1198,0,0,-2.1136,-2.1143,-2.118,-2.1187,-2.1197,-2.1192,-2.1201,-2.1206,-2.1205,-2.1243,-2.1219,-2.124,-2.1277,-2.1284,-2.1292,-2.1369,-2.1349,-2.1376,-2.142,-2.1447,-2.1456,-2.1464,-2.1491,-2.15,-2.1381,-2.1382,-2.1382,0,-2.1176,-2.1215,-2.1201,-2.1232,-2.1243,-2.1215,-2.1252,-2.126,-2.1276,-2.1284,-2.1264,-2.1309,-2.1313,-2.136,-2.1379,-2.1387,-2.1396,-2.1374,-2.1456,-2.1464,-2.1471,-2.1496,-2.1506,-2.1385,-2.1384,-2.1384,-2.1384,0,-2.1262,-2.129,-2.1318,-2.1335,-2.135,-2.1384,-2.1374,-2.139,-2.1378,-2.1375,-2.1413,-2.1417,-2.1436,-2.1447,-2.1435,-2.1493,-2.1481,-2.1459,-2.1423,-2.1486,-2.1509,-2.1518,-2.1389,-2.1388,-2.1387,-2.1386,0,0,-2.1364,-2.1373,-2.1384,-2.1391,-2.1401,-2.1421,-2.1454,-2.1473,-2.1487,-2.1499,-2.1525,-2.1557,-2.1537,-2.1546,-2.1535,-2.1559,-2.1618,-2.1533,-2.1533,-2.1548,-2.1681,-2.1697,-2.1709,-2.1605,-2.1607,-2.1609,-2.168,0,-2.1436,-2.1492,-2.1481,-2.1536,-2.1561,-2.1535,-2.1563,-2.1572,-2.157,-2.159,-2.1587,-2.1609,-2.1581,-2.1587,-2.1609,-2.1606,-2.1645,-2.1601,-2.1629,-2.163,-2.1626,-2.1721,-2.1738,-2.1806,-2.1689,-2.1691,-2.1692,0,-2.1527,-2.1543,-2.1601,-2.1607,-2.1617,-2.1642,-2.1659,-2.1679,-2.1688,-2.1685,-2.1696,-2.168,-2.1712,-2.1676,-2.1719,-2.1689,-2.17,-2.17,-2.1703,-2.1704,-2.1664,-2.1724,-2.1827,-2.1837,-2.1706,-2.1705,-2.1704,0,-2.1594,-2.1631,-2.167,-2.1677,-2.1685,-2.1703,-2.1707,-2.1714,-2.1727,-2.1742,-2.1749,-2.1767,-2.1777,-2.1791,-2.178,-2.1756,-2.1824,-2.1788,-2.1822,-2.1822,-2.1836,-2.1835,-2.1942,-2.1845,-2.1845,-2.1845,-2.1844,0,-2.1675,-2.1711,-2.17,-2.1724,-2.1764,-2.175,-2.179,-2.179,-2.1797,-2.182,-2.1799,-2.1821,-2.1806,-2.1826,-2.1818,-2.1854,-2.1859,-2.1857,-2.1854,-2.1858,-2.1858,-2.1864,-2.1859,-2.1847,-2.1847,-2.1846,-2.1846,0,-2.1756,-2.1751,-2.1792,-2.1796,-2.1798,-2.1827,-2.183,-2.1852,-2.1849,-2.1878,-2.1884,-2.1879,-2.1902,-2.1893,-2.1917,-2.1911,-2.1958,-2.1949,-2.1955,-2.1952,-2.1986,-2.1983,-2.2099,-2.2113,-2.2008,-2.2009,-2.201,0,-2.1808,-2.1835,-2.1843,-2.1858,-2.1864,-2.1887,-2.19,-2.1888,-2.1902,-2.1914,-2.1935,-2.1956,-2.1973,-2.2011,-2.2008,-2.2027,-2.2018,-2.2057,-2.202,-2.2024,-2.2017,-2.2015,-2.2018,-2.2064,-2.2065,-2.2066,-2.2067,0,-2.19,-2.1896,-2.1916,-2.1935,-2.1952,-2.1966,-2.1978,-2.1991,-2.1979,-2.1996,-2.202,-2.2033,-2.2058,-2.208,-2.2096,-2.2099,-2.2081,-2.2079,-2.2088,-2.2092,-2.2094,-2.2092,-2.1974,-2.2076,-2.2075,-2.2075,-2.2074,-2.2074,-2.1967,-2.1991,-2.2,-2.2023,-2.2031,-2.2043,-2.2064,-2.2064,-2.2083,-2.2104,-2.2095,-2.2123,-2.213,-2.2151,-2.2157,-2.2177,-2.2162,-2.2174,-2.2177,-2.2181,-2.2185,-2.2091,-2.218,-2.218,-2.218,-2.218,-2.2179,0,-2.2058,-2.2063,-2.2084,-2.2102,-2.212,-2.2103,-2.2116,-2.2132,-2.2156,-2.2166,-2.2183,-2.221,-2.2231,-2.223,-2.2249,-2.2266,-2.2258,-2.2271,-2.2269,-2.227,-2.2198,-2.2188,-2.2277,-2.2277,-2.2277,-2.2277,-2.2277,-2.2277,-2.2107,-2.2145,-2.2142,-2.2184,-2.2188,-2.2215,-2.2224,-2.2235,-2.2242,-2.2274,-2.2291,-2.2291,-2.2297,-2.2316,-2.2334,-2.2333,-2.234,-2.2357,-2.2353,-2.2285,-2.2275,-2.2266,-2.2257,-2.2359,-2.2359,-2.2423,-2.2424,-2.2424]}]]